Location: Alfortville
(48.8058°N, 2.4204°E)
Time: 18:41:36
(UTC+00:00)

Cosmos 1190 Rocket - Pass Details

Date: 24 October 2021
Orbit: 756 x 780 km, 74.1° (Epoch: 06 December)

Event Time Altitude Azimuth Distance (km) Brightness Sun altitude
Rises 18:54:20 0° 339° (NNW) 3,226 7.6 -22.1°
Reaches altitude 10° 18:56:45 10° 343° (NNW) 2,299 6.8 -22.5°
Maximum altitude 19:01:54 60° 63° (ENE) 873 4.0 -23.4°
Enters shadow 19:02:04 60° 72° (ENE) 875 3.9 -23.4°
